"Pseudo-MPEC" for P11Osmu

Created 2023 Dec 2 2:22:06 UT using Find_Orb

Click here for an explanation of pseudo-MPECs

 
 Astrometry: 
     P11Osmu* C2023 11 19ojvAstrometry!4j23DKxC]cGredacted;G'#\click%BuHA9JfYF51
     P11Osmu  C2023 11 190ru%brPblc-r;*U$+W`.9eQherehgL[kl:!djZb:V$-se%5o49UkF51
     P11Osmu  C2023 11 19yc_?nM,u/forxg#y,m4f/NexplanationC4[S`Q#OEX@xAYqj-$?F51

Station data:
(F51) Pan-STARRS 1, Haleakala  (N20.707234 W156.255910)  US/Hawaii.
   Observers J. Bulger, T. Lowe, A. Schultz, M. Willman. Measurers K.
   Chambers, S. Chastel, T. de Boer, L. Denneau, J. Fairlamb, H. Flewelling,
   M. Huber, C.-C. Lin, E. Magnier, Y. Ramanjooloo, R. Wainscoat, R. Weryk.
   1.8-m Ritchey-Chrétien + CCD.

Orbital elements:  P11Osmu
   Perihelion 2024 Jun 25.58710 +/- 247 TT = 14:05:25 (JD 2460487.08710)
Epoch 2023 Nov 19.0 TT = JDT 2460267.5   Earth MOID: 0.2623      AutoNEOCP
M 291.97731195 +/- 60               (J2000 ecliptic)
n   0.30977543 +/- 0.22             Peri.  321.14721 +/- 90
a   2.16324013 +/- 1.02             Node   219.11738 +/- 44
e   0.4404823 +/- 0.266             Incl.   21.94365 +/- 31
P   3.18                   H 19.45  G  0.15   U 11.7  SR
q 1.21037105 +/- 0.836    Q 3.11610922 +/- 29.4
From 3 observations 2023 Nov. 19 (54.9 min); mean residual 0".24
Residuals in arcseconds: 
231119 F51  .08+  .30+    231119 F51  .12-  .45-    231119 F51  .04+  .15+    

Ephemerides (geocentric):
Date (UTC) HH   RA             Dec           delta  r     elong  mag " sig PA
---- --------  ------------   ------------  ------ ------ -----  --- --------
2023 12 02 02  03 57 49.070   +03 10 52.89  1.1978 2.1501 159.7 22.1  34d  94
2023 12 02 03  03 57 45.816   +03 10 16.87  1.1977 2.1498 159.7 22.1  34d  94
2023 12 02 04  03 57 42.562   +03 09 40.86  1.1976 2.1496 159.7 22.1  34d  94
2023 12 02 05  03 57 39.308   +03 09 04.87  1.1975 2.1494 159.6 22.1  34d  94
2023 12 02 06  03 57 36.055   +03 08 28.91  1.1974 2.1492 159.6 22.1  34d  94
2023 12 02 07  03 57 32.802   +03 07 52.96  1.1973 2.1490 159.5 22.1  34d  94
2023 12 02 08  03 57 29.550   +03 07 17.04  1.1973 2.1488 159.5 22.1  34d  94
2023 12 02 09  03 57 26.297   +03 06 41.13  1.1972 2.1485 159.5 22.1  34d  94
2023 12 02 10  03 57 23.046   +03 06 05.25  1.1971 2.1483 159.4 22.1  34d  94
2023 12 02 11  03 57 19.794   +03 05 29.39  1.1970 2.1481 159.4 22.1  34d  94
2023 12 02 12  03 57 16.543   +03 04 53.55  1.1969 2.1479 159.4 22.1  34d  94
2023 12 02 13  03 57 13.292   +03 04 17.73  1.1968 2.1477 159.3 22.1  34d  94
2023 12 02 14  03 57 10.041   +03 03 41.93  1.1968 2.1475 159.3 22.1  34d  94
2023 12 02 15  03 57 06.791   +03 03 06.15  1.1967 2.1472 159.2 22.1  34d  94
2023 12 02 16  03 57 03.542   +03 02 30.39  1.1966 2.1470 159.2 22.1  34d  94
2023 12 02 17  03 57 00.292   +03 01 54.65  1.1965 2.1468 159.2 22.1  34d  94
2023 12 02 18  03 56 57.043   +03 01 18.94  1.1964 2.1466 159.1 22.1  34d  94
2023 12 02 19  03 56 53.795   +03 00 43.24  1.1964 2.1464 159.1 22.1  34d  94
2023 12 02 20  03 56 50.547   +03 00 07.57  1.1963 2.1462 159.1 22.1  34d  94
2023 12 02 21  03 56 47.299   +02 59 31.92  1.1962 2.1459 159.0 22.1  34d  94
2023 12 02 22  03 56 44.052   +02 58 56.29  1.1961 2.1457 159.0 22.1  34d  94
2023 12 02 23  03 56 40.805   +02 58 20.68  1.1961 2.1455 158.9 22.1  34d  94
2023 12 03 00  03 56 37.559   +02 57 45.09  1.1960 2.1453 158.9 22.1  34d  94
2023 12 03 01  03 56 34.313   +02 57 09.53  1.1959 2.1451 158.9 22.1  34d  94
2023 12 03 02  03 56 31.067   +02 56 33.98  1.1958 2.1449 158.8 22.1  34d  94
2023 12 03 03  03 56 27.822   +02 55 58.46  1.1958 2.1446 158.8 22.1  34d  94
2023 12 03 04  03 56 24.578   +02 55 22.96  1.1957 2.1444 158.7 22.1  34d  94
2023 12 03 05  03 56 21.334   +02 54 47.48  1.1956 2.1442 158.7 22.1  34d  94
2023 12 03 06  03 56 18.090   +02 54 12.02  1.1955 2.1440 158.7 22.1  34d  94
2023 12 03 07  03 56 14.847   +02 53 36.59  1.1955 2.1438 158.6 22.1  34d  94
2023 12 03 08  03 56 11.604   +02 53 01.18  1.1954 2.1436 158.6 22.1  34d  94
2023 12 03 09  03 56 08.362   +02 52 25.78  1.1953 2.1433 158.5 22.1  34d  94
2023 12 03 10  03 56 05.121   +02 51 50.42  1.1952 2.1431 158.5 22.1  34d  94
2023 12 03 11  03 56 01.880   +02 51 15.07  1.1952 2.1429 158.5 22.1  34d  94
2023 12 03 12  03 55 58.639   +02 50 39.74  1.1951 2.1427 158.4 22.1  34d  94
2023 12 03 13  03 55 55.399   +02 50 04.44  1.1950 2.1425 158.4 22.1  34d  94
2023 12 03 14  03 55 52.160   +02 49 29.16  1.1950 2.1423 158.3 22.1  34d  94
2023 12 03 15  03 55 48.921   +02 48 53.91  1.1949 2.1420 158.3 22.1  34d  94
2023 12 03 16  03 55 45.683   +02 48 18.67  1.1948 2.1418 158.3 22.1  34d  94
2023 12 03 17  03 55 42.445   +02 47 43.46  1.1948 2.1416 158.2 22.1  34d  94
2023 12 03 18  03 55 39.208   +02 47 08.27  1.1947 2.1414 158.2 22.1  34d  94
2023 12 03 19  03 55 35.972   +02 46 33.10  1.1946 2.1412 158.1 22.1  34d  94
2023 12 03 20  03 55 32.736   +02 45 57.96  1.1946 2.1410 158.1 22.1  34d  94
2023 12 03 21  03 55 29.500   +02 45 22.83  1.1945 2.1407 158.1 22.1  34d  94
2023 12 03 22  03 55 26.266   +02 44 47.74  1.1944 2.1405 158.0 22.1  34d  94
2023 12 03 23  03 55 23.032   +02 44 12.66  1.1944 2.1403 158.0 22.1  34d  94
2023 12 04 00  03 55 19.798   +02 43 37.61  1.1943 2.1401 157.9 22.1  34d  94
2023 12 04 01  03 55 16.565   +02 43 02.58  1.1942 2.1399 157.9 22.1  34d  94